If you wish to contribute or participate in the discussions about articles you are invited to join SKYbrary as a registered user

 Actions

Horn Island Airport

From SKYbrary Wiki

YHID
Airport
ICAO: YHID – IATA: HID
Summary
Name Horn Island Airport
Region Asia and Pacific
Territory "YH" is not in the list (AG, AN, AY, BG, BI, BK, C, CT, DA, DB, ...) of allowed values for the "ICAO Territory" property.
Location , Queensland
Serving Horn Island
Elevation 13.106 m
43 ft
43 ft13.106 m
Type medium airport
Coordinates 10° 35' 11.04" S, 142° 17' 24.00" E
Runways
Designator Length Width Surface ROPS
8/26 1389 m4,557.087 ft
30 m98.425 ft
ASP /
14/32 1235 m4,051.837 ft
23 m75.459 ft
ASP /


METAR
Observation YHID 261930Z AUTO 00000KT 9999 // NCD 26/24 Q1007
Station HORN ISLAND
Date/Time 26 February 2020 19:30:00
Wind direction
Wind speed 00 kts
Lowest cloud amount no clouds detected
Temperature 26°C
Dew point 24°C
Humidity 88%
QNH 1007 hPa
Weather condition n/a